Tracking 34401 objects as of 17-Jun-2026
HD Live streaming from Space Station
objects crossing your sky now

INSAT 3B

Track INSAT 3B now!
INSAT 3B is classified as:


NORAD ID: 26108
Int'l Code: 2000-016B
Perigee: 35,945.4 km
Apogee: 35,986.3 km
Inclination: 10.9 °
Period: 1,444.9 minutes
Semi major axis: 42336 km
RCS: 5.0119 m2 (large)
Launch date: March 21, 2000
Source: India (IND)
Launch site: FRENCH GUIANA (FRGUI)

Voice, data and fax transmissions.
Your satellite tracking list
Your tracking list is empty




NASA's NSSDC Master Catalog

Two Line Element Set (TLE):
1 26108U 00016B   26168.40016454  .00000057  00000-0  00000-0 0  9993
2 26108  10.8579  45.4993 0004834 230.3896 336.3923  0.99661017 51434
Source of the keplerian elements: AFSPC